[[{"header":{"parameterUnit":"m.s-1","parameterCategory":1,"la1":30.2991,"la2":30.254,"lo1":-89.0895,"lo2":-89.0444,"dy":0.0017,"dx":0.0017,"nx":28,"ny":28,"refTime":"2025-04-21T09:00:00:Z","depth":0,"parameterNumber":2,"parameterNumberName":"U-component_of_WINDS"},"data":[0,0,0,0,0,0,0,0,0,0,0,0,0,0,0,0,0,0,0,0,0,0,0,0,0,0,0,0,0,0,0,0,0,0,0,0,0,0,0,0,0,0,0,0,0,0,0,0,0,0,0,0,0,0,0,0,0,0,-1.7732,-1.7732,0,-1.7751,-1.7752,-1.7752,-1.7787,-1.7788,-1.7788,-1.7789,-1.7808,-1.7808,-1.7808,0,0,0,0,0,0,0,0,0,0,0,0,0,-1.7723,-1.7723,-1.7732,-1.7732,-1.7732,-1.7751,-1.7752,-1.7752,-1.7787,-1.7788,-1.7789,-1.7789,-1.7808,-1.7808,-1.7808,0,0,0,0,0,0,0,0,0,0,0,0,0,-1.7733,-1.7723,-1.7732,-1.7752,-1.7754,-1.7751,-1.7752,-1.7752,-1.7787,-1.7788,-1.7789,-1.779,-1.7808,-1.7808,-1.7808,-1.7786,0,0,-1.7807,-1.7807,0,0,0,0,0,0,0,0,-1.7733,-1.7734,-1.7749,-1.7751,-1.7753,-1.7768,-1.7756,-1.7764,-1.7787,-1.7774,-1.7789,-1.779,-1.7794,-1.7795,-1.7796,-1.7787,-1.7788,-1.7807,-1.7807,-1.7807,-1.7807,0,0,0,0,0,0,0,-1.7732,-1.7733,-1.7739,-1.7749,-1.7751,-1.776,-1.7762,-1.7757,-1.7778,-1.7775,-1.7778,-1.778,-1.7795,-1.7796,-1.7797,-1.7788,-1.7807,-1.7807,-1.7807,-1.7807,-1.7763,-1.7762,0,0,0,0,0,0,-1.7729,-1.7732,-1.7739,-1.774,-1.7745,-1.7759,-1.7762,-1.7762,-1.7778,-1.7782,-1.7779,-1.7782,-1.7796,-1.7797,-1.7798,-1.7774,-1.7807,-1.7807,-1.7807,-1.7765,-1.7763,-1.7762,0,0,0,0,0,0,-1.7728,-1.7729,-1.7738,-1.7737,-1.7739,-1.7758,-1.7758,-1.7762,-1.7763,-1.7781,-1.7785,-1.7777,-1.7797,-1.7798,-1.7789,-1.7775,-1.7807,-1.7807,-1.7766,-1.7764,-1.7763,-1.7726,0,0,0,0,0,0,-1.7728,-1.7728,-1.7721,-1.7736,-1.7739,-1.7729,-1.7757,-1.7761,-1.7763,-1.7766,-1.778,-1.7783,-1.7798,-1.7789,-1.7789,-1.7775,-1.7806,-1.7767,-1.7765,-1.7763,-1.7729,-1.7723,-1.7719,0,0,0,0,0,-1.7727,-1.7709,-1.772,-1.7721,-1.7729,-1.7728,-1.7729,-1.7747,-1.7762,-1.7754,-1.7765,-1.7782,-1.7777,-1.7788,-1.7788,-1.7774,-1.7768,-1.7766,-1.7763,-1.7731,-1.7724,-1.7719,0,0,0,0,0,0,-1.7691,-1.7712,-1.7724,-1.771,-1.7717,-1.7734,-1.7725,-1.774,-1.7743,-1.7746,-1.7768,-1.777,-1.7759,-1.7766,-1.7778,-1.7755,-1.7775,-1.7773,-1.775,-1.7744,-1.774,-1.7738,-1.7806,0,0,0,0,0,-1.7681,-1.7679,-1.7697,-1.7683,-1.7686,-1.7705,-1.7705,-1.7718,-1.7726,-1.7729,-1.774,-1.7747,-1.7747,-1.7746,-1.7747,-1.773,-1.7733,-1.7721,-1.7716,-1.7712,-1.7709,-1.7701,-1.7695,-1.7754,-1.7754,-1.7754,0,0,-1.7661,-1.7672,-1.7669,-1.7676,-1.7683,-1.768,-1.7707,-1.7702,-1.77,-1.7729,-1.7721,-1.7729,-1.7738,-1.7725,-1.772,-1.7731,-1.7694,-1.7709,-1.7706,-1.7705,-1.7698,-1.7692,-1.7687,-1.7753,-1.7753,-1.7753,0,0,-1.7623,-1.7631,-1.762,-1.7627,-1.7638,-1.765,-1.7648,-1.7663,-1.7669,-1.7662,-1.7683,-1.7681,-1.768,-1.7686,-1.7689,-1.7654,-1.7669,-1.7653,-1.7628,-1.7619,-1.7615,-1.7611,-1.7598,-1.7593,-1.7651,-1.7651,-1.7651,0,-1.7596,-1.7592,-1.7613,-1.7607,-1.761,-1.7636,-1.7625,-1.7631,-1.7641,-1.7642,-1.7654,-1.7654,-1.7662,-1.765,-1.7642,-1.7643,-1.7641,-1.7651,-1.7614,-1.761,-1.7607,-1.7595,-1.759,-1.7649,-1.7649,-1.7649,-1.7649,0,-1.7559,-1.7556,-1.7547,-1.7556,-1.7558,-1.7549,-1.7569,-1.7568,-1.7581,-1.7592,-1.7585,-1.7596,-1.7599,-1.7598,-1.7611,-1.7588,-1.7595,-1.761,-1.7631,-1.7599,-1.7588,-1.7583,-1.7646,-1.7646,-1.7647,-1.7647,0,0,-1.7497,-1.7519,-1.7515,-1.752,-1.7534,-1.7532,-1.7525,-1.7529,-1.7528,-1.7534,-1.7528,-1.7528,-1.7542,-1.7545,-1.7559,-1.7552,-1.7523,-1.7568,-1.7569,-1.7559,-1.7499,-1.7487,-1.7481,-1.7534,-1.7533,-1.7533,-1.7498,0,-1.7462,-1.7451,-1.747,-1.7455,-1.7453,-1.7478,-1.7472,-1.748,-1.749,-1.749,-1.7502,-1.7501,-1.752,-1.7522,-1.7516,-1.7528,-1.7511,-1.7531,-1.7529,-1.7529,-1.7525,-1.7476,-1.7463,-1.743,-1.7494,-1.7494,-1.7493,0,-1.7418,-1.7423,-1.7408,-1.7423,-1.7423,-1.7417,-1.7422,-1.7422,-1.7431,-1.7439,-1.7443,-1.746,-1.7454,-1.7475,-1.7467,-1.748,-1.7481,-1.7487,-1.7486,-1.7486,-1.7508,-1.7474,-1.742,-1.7415,-1.7487,-1.7487,-1.7488,0,-1.7374,-1.7377,-1.7368,-1.7371,-1.7389,-1.7384,-1.7391,-1.7402,-1.7403,-1.7408,-1.7409,-1.7413,-1.7415,-1.7417,-1.7435,-1.7448,-1.7425,-1.7447,-1.7431,-1.7431,-1.7425,-1.7425,-1.7369,-1.7426,-1.7426,-1.7426,-1.7426,0,-1.7332,-1.7322,-1.7349,-1.7343,-1.7333,-1.7354,-1.7343,-1.7353,-1.7362,-1.7359,-1.7381,-1.7377,-1.7401,-1.74,-1.7413,-1.7405,-1.7406,-1.7412,-1.7416,-1.741,-1.7409,-1.741,-1.7413,-1.7425,-1.7425,-1.7425,-1.7426,0,-1.7281,-1.7298,-1.7291,-1.7308,-1.7312,-1.7304,-1.7319,-1.7314,-1.7327,-1.7322,-1.7323,-1.7342,-1.7342,-1.736,-1.7364,-1.7373,-1.7359,-1.7367,-1.7355,-1.7358,-1.7341,-1.7342,-1.7284,-1.7277,-1.7338,-1.7337,-1.7337,0,-1.7252,-1.7245,-1.7262,-1.7262,-1.7268,-1.7267,-1.7269,-1.729,-1.7291,-1.7301,-1.7296,-1.7298,-1.73,-1.7299,-1.7314,-1.7317,-1.7325,-1.7304,-1.7325,-1.732,-1.7324,-1.7324,-1.7324,-1.7299,-1.7299,-1.7298,-1.7298,0,-1.72,-1.7209,-1.7211,-1.7216,-1.7217,-1.7222,-1.7228,-1.7226,-1.725,-1.7249,-1.725,-1.7252,-1.7256,-1.7258,-1.7264,-1.7271,-1.7288,-1.7291,-1.7287,-1.7281,-1.7275,-1.7278,-1.7343,-1.7292,-1.7293,-1.7293,-1.7293,-1.7294,-1.7159,-1.7154,-1.7165,-1.7167,-1.7174,-1.7179,-1.7176,-1.7188,-1.7189,-1.7194,-1.7207,-1.7205,-1.7215,-1.7225,-1.7231,-1.723,-1.724,-1.7235,-1.7234,-1.7232,-1.7229,-1.7275,-1.7231,-1.7231,-1.7232,-1.7232,-1.7232,0,-1.7108,-1.7117,-1.7118,-1.7126,-1.7127,-1.7143,-1.7151,-1.715,-1.7149,-1.7157,-1.716,-1.716,-1.7162,-1.7177,-1.7181,-1.7177,-1.7185,-1.7178,-1.7178,-1.7179,-1.722,-1.7222,-1.7171,-1.7171,-1.7171,-1.7171,-1.7171,-1.7171,-1.7082,-1.7074,-1.7084,-1.708,-1.7089,-1.7088,-1.7091,-1.7096,-1.7103,-1.7102,-1.7104,-1.7114,-1.7125,-1.713,-1.7132,-1.7137,-1.7137,-1.7126,-1.7133,-1.717,-1.7176,-1.7182,-1.7184,-1.7126,-1.7126,-1.7093,-1.7093,-1.7092]},{"header":{"parameterUnit":"m.s-1","parameterCategory":1,"la1":30.2991,"la2":30.254,"lo1":-89.0895,"lo2":-89.0444,"dy":0.0017,"dx":0.0017,"nx":28,"ny":28,"refTime":"2025-04-21T09:00:00:Z","depth":0,"parameterNumber":3,"parameterNumberName":"V-component_of_WINDS"},"data":[0,0,0,0,0,0,0,0,0,0,0,0,0,0,0,0,0,0,0,0,0,0,0,0,0,0,0,0,0,0,0,0,0,0,0,0,0,0,0,0,0,0,0,0,0,0,0,0,0,0,0,0,0,0,0,0,0,0,3.972,3.9721,0,3.9856,3.9858,3.986,3.9968,3.9969,3.997,3.9971,4.0109,4.0112,4.0114,0,0,0,0,0,0,0,0,0,0,0,0,0,3.9554,3.9556,3.972,3.9721,3.9723,3.9856,3.9858,3.986,3.9968,3.9969,3.997,3.9971,4.0108,4.0111,4.0114,0,0,0,0,0,0,0,0,0,0,0,0,0,3.9651,3.9557,3.9719,3.9793,3.9801,3.9856,3.9858,3.986,3.9967,3.9969,3.9971,3.9972,4.0107,4.0111,4.0115,4.0107,0,0,4.0127,4.0129,0,0,0,0,0,0,0,0,3.9646,3.9657,3.978,3.9788,3.9797,3.9897,3.985,3.9943,3.9967,3.9904,3.9971,3.9973,4.0037,4.0047,4.0069,4.0114,4.012,4.0128,4.013,4.0132,4.0133,0,0,0,0,0,0,0,3.9639,3.9652,3.9774,3.9782,3.9792,3.982,3.9835,3.9868,3.996,3.991,3.9918,3.9933,4.0042,4.0065,4.0073,4.0122,4.0127,4.0131,4.0133,4.0135,4.0173,4.0172,0,0,0,0,0,0,3.9621,3.9646,3.9769,3.9778,3.9724,3.9821,3.9839,3.9863,3.996,3.9976,3.9931,3.9937,4.0057,4.0068,4.0078,4.0079,4.0132,4.0135,4.0138,4.0175,4.0173,4.0171,0,0,0,0,0,0,3.9617,3.9631,3.9764,3.9714,3.9733,3.9823,3.9849,3.9865,3.9888,3.9976,3.9993,3.9938,4.0059,4.0073,4.0101,4.0085,4.0137,4.0141,4.0176,4.0174,4.0172,4.0078,0,0,0,0,0,0,3.9611,3.9628,3.9626,3.9713,3.9735,3.9783,3.9848,3.9866,3.9895,3.9904,3.9987,4.0002,4.0061,4.0094,4.0105,4.0092,4.0144,4.0178,4.0175,4.0173,4.0083,4.0073,4.0065,0,0,0,0,0,3.9605,3.9592,3.9625,3.9639,3.9734,3.9782,3.9795,3.9864,3.9893,3.9892,3.9949,3.9999,4.0085,4.0096,4.0109,4.0097,4.0179,4.0176,4.0173,4.0087,4.0075,4.0065,0,0,0,0,0,0,3.9498,3.9605,3.9642,3.9657,3.971,3.98,3.98,3.9848,3.9893,3.9899,3.9983,4.0001,4.0021,4.0062,4.0072,4.0098,4.0139,4.0138,4.007,4.0059,4.005,4.0039,4.0147,0,0,0,0,0,3.9477,3.9507,3.9598,3.9603,3.9628,3.9709,3.9732,3.9782,3.9839,3.9862,3.9921,3.9975,4.0015,4.0039,4.008,4.009,4.0112,4.0089,4.008,4.0072,4.007,4.0082,4.0074,4.0161,4.0161,4.0161,0,0,3.9432,3.9494,3.9507,3.9583,3.963,3.966,3.9727,3.9755,3.9779,3.9866,3.9897,3.9943,4.0009,4.0029,4.0041,4.0064,4.0051,4.0068,4.0061,4.0063,4.0078,4.007,4.0063,4.0159,4.0159,4.016,0,0,3.9366,3.9415,3.9426,3.9473,3.9543,3.9599,3.9601,3.9686,3.972,3.9753,3.9821,3.9851,3.9916,3.9962,3.9994,3.9951,4.0,3.9962,3.9914,3.9925,3.9919,3.9913,3.99,3.9895,3.9961,3.996,3.996,0,3.9301,3.9349,3.9425,3.9451,3.9484,3.9567,3.958,3.9621,3.9701,3.9722,3.9748,3.9836,3.9886,3.992,3.991,3.9932,3.994,3.9953,3.9913,3.9909,3.9905,3.9894,3.9888,3.9955,3.9956,3.9957,3.9957,0,3.9268,3.93,3.9301,3.9379,3.9412,3.943,3.9511,3.9536,3.9583,3.9637,3.9671,3.9735,3.9793,3.9805,3.985,3.9847,3.9859,3.9898,3.9941,3.989,3.9881,3.9878,3.9948,3.995,3.9952,3.9953,0,0,3.9135,3.9258,3.9257,3.9296,3.9382,3.941,3.9434,3.9492,3.9513,3.9566,3.9591,3.9647,3.9685,3.9721,3.9773,3.9783,3.975,3.9822,3.9824,3.9808,3.9754,3.9725,3.9718,3.9783,3.9783,3.9782,3.9749,0,3.9084,3.9133,3.9205,3.923,3.9263,3.9345,3.9367,3.9423,3.9475,3.9511,3.9569,3.9608,3.9654,3.9677,3.969,3.9751,3.974,3.9754,3.9808,3.9809,3.9789,3.9713,3.9682,3.9647,3.9746,3.9745,3.9745,0,3.903,3.9082,3.9111,3.92,3.9217,3.9235,3.9297,3.933,3.9397,3.9434,3.9477,3.9535,3.9568,3.9607,3.9655,3.9663,3.969,3.9723,3.9724,3.9731,3.9773,3.972,3.9637,3.9632,3.9739,3.974,3.974,0,3.8934,3.9011,3.904,3.9069,3.9172,3.9184,3.9228,3.9297,3.9329,3.9383,3.9405,3.9461,3.9492,3.9536,3.9608,3.963,3.9649,3.9694,3.9682,3.968,3.9682,3.9681,3.9603,3.9697,3.9697,3.9697,3.9697,0,3.887,3.8885,3.8998,3.9015,3.9036,3.912,3.9138,3.919,3.9251,3.9282,3.9355,3.9382,3.9476,3.9515,3.9572,3.9605,3.9618,3.965,3.9665,3.9644,3.964,3.9662,3.9667,3.9696,3.9696,3.9697,3.9697,0,3.8764,3.884,3.8878,3.8974,3.8999,3.901,3.9093,3.9115,3.9172,3.921,3.9224,3.9314,3.9364,3.9442,3.9513,3.9552,3.9576,3.96,3.9553,3.9563,3.9548,3.9549,3.9482,3.9479,3.9573,3.9572,3.9571,0,3.8719,3.8733,3.8832,3.8859,3.89,3.8941,3.8975,3.9059,3.9092,3.9172,3.9185,3.9241,3.929,3.9367,3.9439,3.9496,3.9523,3.9496,3.9532,3.9512,3.9526,3.9524,3.9528,3.9487,3.9486,3.9485,3.9484,0,3.8631,3.8669,3.8715,3.8776,3.8816,3.8867,3.8922,3.894,3.9037,3.907,3.9123,3.9162,3.9238,3.9294,3.9361,3.9408,3.9463,3.9472,3.9473,3.9452,3.9425,3.9442,3.9532,3.9473,3.9474,3.9475,3.9476,3.9476,3.8556,3.8574,3.8648,3.8698,3.875,3.8801,3.8827,3.8889,3.8935,3.9004,3.9052,3.9102,3.9174,3.9271,3.9315,3.9358,3.9381,3.9381,3.9382,3.9381,3.9374,3.9418,3.937,3.9371,3.9371,3.9371,3.9372,0,3.8474,3.8526,3.8572,3.8649,3.8689,3.8739,3.8804,3.8835,3.8879,3.8942,3.899,3.9053,3.9109,3.9188,3.925,3.9269,3.9296,3.9283,3.9282,3.9293,3.9348,3.9343,3.926,3.926,3.926,3.926,3.926,3.926,3.8435,3.847,3.8518,3.858,3.8633,3.8684,3.8718,3.8766,3.8817,3.8885,3.8932,3.8984,3.9054,3.9123,3.9177,3.9199,3.9219,3.9198,3.9228,3.9278,3.9288,3.9298,3.9293,3.9202,3.9201,3.917,3.9169,3.9169]}]]